NOAA 16 DEB, 42365

Orbit data source: Space-Track

NOAA 16 DEB, 42365 is space debris in SSO originally from a launch on Thu, 21 Sep 2000 UTC launched from the Air Force Western Test Range (AFWTR). Debris objects in space refer to the collection of defunct objects orbiting the Earth. Examples of debris include non-operational satellites, rocket bodies, and fragments generated from explosions, collisions, or faulty payload assembly.

Loading next visibility...
Identifier
42365, 2000-055RH
Orbit
SSO
Country
Flag of USUS
Related business
Manufacturer
Unknown
Mission
Spacecraft
Bus & Motor
Unknown
Mass
Unknown
Launch date (UTC)
2000-09-21 (26 years ago)
Launch vehicle
Unknown
Launch site
Air Force Western Test Range (AFWTR)
Object type
Payload
Rocket body
Debris
Shape & HBR
Unknown shape, 0.1 m
Radar Cross Section
Medium (>0.1 m² and <1 m²)

Expand to show TLE details & history
Last TLE update: 1 week ago

TLE from 1 week ago
0 NOAA 16 DEB
1 42365U 00055RH  26153.80483832  .00006757  00000-0  16421-2 0  9994
2 42365  98.9729   4.1134 0036201 158.6089 201.6627 14.52785378536624
Epoch: 2026-06-02T19:18Z
TLE epoch observation values (Epoch: 2026-06-02T19:18:58.030Z)
Latitude
-0.00007°
Longitude
-176.90093°
Altitude
743.403 km
Speed
7.47 km/s
True Right ascension
00h 16m 27s
True Declination
0° 00' 00"
Sunlit
Object was in daylight at epoch
Visualization orbit readout
Latitude
Unknown
Longitude
Unknown
Altitude
Unknown
Speed
Unknown
Apparent Right ascension
Unknown
Apparent Declination
Unknown
Sunlit
N/A
Visualization observer readout
Local Sidereal Time
19:11:11
Azimuth
Unknown
Elevation
Unknown
Doppler factor
Unknown
Orbital elements
Apogee altitude
739.367 km
Perigee altitude
688.02 km
Semi-major axis
7,091.831 km
Eccentricity
0.00362
Inclination
98.9729°
RAAN
4.1134°
Arg. of periapsis
158.6089°
True anomaly
201.51021°
Mean anomaly
201.6627°
Eccentric anomaly
201.58639°
Mean motion
3.63417 °/min
Orbital period
99.06 mins
BSTAR
0.0016421
Loading maneuver chart data...
Computing Atmospheric mass density...
Loading historical data...
Loading historical data...
Loading historical data...
Loading historical data...
Loading historical data...
Loading historical data...
Loading historical data...

Documentation

Showing up to 5 results
|